Hearne, TX

3:58 PM CST on February 06, 2016 (GMT -0600)
Hearne

Weather History for KLHB - August, 2013

Change the Weather History Date:

Monday, August 19, 2013

  Actual Average (KCLL) Record (KCLL)
Temperature  
Mean Temperature 80 °F 86 °F  
Max Temperature 95 °F 96 °F 105 °F (1948)
Min Temperature 65 °F 75 °F 66 °F (1927)
Degree Days  
Heating Degree Days 0 0  
Month to date heating degree days 0  
Since 1 June heating degree days 0  
Since 1 July heating degree days 0  
Cooling Degree Days 14 21  
Month to date cooling degree days 398  
Year to date cooling degree days 2113  
Since 1 June cooling degree days 1525  
Growing Degree Days 30 (Base 50)    
Moisture  
Dew Point 62 °F    
Average Humidity 57    
Maximum Humidity 87    
Minimum Humidity 30    
Precipitation  
Precipitation 0.00 in 0.09 in 1.29 in (2008)
Month to date precipitation 1.46  
Year to date precipitation 24.30  
Sea Level Pressure  
Sea Level Pressure 30.00 in    
Wind  
Wind Speed 2 mph (SE)    
Max Wind Speed 9 mph    
Max Gust Speed 16 mph    
Visibility 10 miles    
Events      
T = Trace of Precipitation, MM = Missing Value Source: NWS Daily Summary

Daily Weather History Graph

Daily Weather History Graph

Search for Another Location

Airport or City:

Trip Planner

Search our weather history database for the weather conditions in past years. The results will help you decide how hot, cold, wet, or windy it might be!

Date:

Astronomy

Aug. 19, 2013 Rise Set
Actual Time 6:55 AM CDT 8:04 PM CDT
Civil Twilight 6:30 AM CDT 8:29 PM CDT
Nautical Twilight 6:00 AM CDT 8:59 PM CDT
Astronomical Twilight 5:29 AM CDT 9:30 PM CDT
Moon 6:56 PM CDT (8/19) 5:18 AM CDT (8/19)
Length of Visible Light 13h 59m
Length of Day
13h 08m
Waxing Gibbous, 97% of the Moon is Illuminated
Aug 19
Waxing Gibbous
Aug 20
Full
Aug 28
Last Quarter
Sep 5
New
Sep 12
First Quarter

Hourly Weather History & Observations

Time (CDT) Temp. Heat Index Dew Point Humidity Pressure Visibility Wind Dir Wind Speed Gust Speed Precip Events Conditions
12:15 AM 70.7 °F - 61.0 °F 71% 30.01 in 10.0 mi Calm Calm - N/A   Clear
12:35 AM 70.7 °F - 60.4 °F 70% 30.01 in 10.0 mi Calm Calm - N/A   Clear
12:55 AM 68.2 °F - 61.0 °F 78% 30.00 in 10.0 mi Calm Calm - N/A   Clear
1:15 AM 68.7 °F - 61.2 °F 77% 30.00 in 10.0 mi Calm Calm - N/A   Clear
1:35 AM 67.6 °F - 61.3 °F 80% 30.00 in 10.0 mi ESE 3.5 mph - N/A   Clear
1:55 AM 70.7 °F - 60.3 °F 69% 30.00 in 10.0 mi Calm Calm - N/A   Clear
2:15 AM 68.4 °F - 60.8 °F 77% 30.00 in 10.0 mi ENE 3.5 mph - N/A   Clear
2:35 AM 67.6 °F - 60.6 °F 78% 30.01 in 10.0 mi Calm Calm - N/A   Clear
2:55 AM 67.6 °F - 60.8 °F 79% 30.01 in 10.0 mi Calm Calm - N/A   Clear
3:15 AM 68.4 °F - 60.8 °F 77% 30.01 in 10.0 mi Calm Calm - N/A   Clear
3:35 AM 68.7 °F - 60.6 °F 75% 30.01 in 10.0 mi Calm Calm - N/A   Clear
3:55 AM 68.9 °F - 60.8 °F 75% 30.01 in 10.0 mi Calm Calm - N/A   Clear
4:15 AM 66.9 °F - 60.8 °F 81% 30.01 in 10.0 mi Calm Calm - N/A   Clear
4:35 AM 68.5 °F - 61.2 °F 77% 30.01 in 10.0 mi Calm Calm - N/A   Clear
4:55 AM 67.8 °F - 61.3 °F 80% 30.01 in 10.0 mi Calm Calm - N/A   Clear
5:15 AM 67.3 °F - 61.3 °F 81% 30.01 in 10.0 mi Calm Calm - N/A   Clear
5:35 AM 67.1 °F - 61.2 °F 81% 30.01 in 10.0 mi Calm Calm - N/A   Clear
5:55 AM 66.4 °F - 61.7 °F 85% 30.01 in 10.0 mi Calm Calm - N/A   Clear
6:15 AM 66.2 °F - 61.7 °F 85% 30.02 in 10.0 mi Calm Calm - N/A   Clear
6:35 AM 66.2 °F - 61.7 °F 85% 30.02 in 10.0 mi Calm Calm - N/A   Clear
6:55 AM 65.8 °F - 61.9 °F 87% 30.03 in 10.0 mi Calm Calm - N/A   Clear
7:15 AM 66.7 °F - 62.6 °F 86% 30.03 in 10.0 mi Calm Calm - N/A   Clear
7:35 AM 68.0 °F - 63.3 °F 85% 30.04 in 10.0 mi Calm Calm - N/A   Clear
7:55 AM 69.6 °F - 64.9 °F 85% 30.04 in 10.0 mi Calm Calm - N/A   Clear
8:15 AM 72.7 °F - 66.2 °F 80% 30.05 in 10.0 mi Calm Calm - N/A   Clear
8:35 AM 74.5 °F - 66.9 °F 77% 30.06 in 10.0 mi Calm Calm - N/A   Clear
8:55 AM 77.0 °F - 67.6 °F 73% 30.06 in 10.0 mi Calm Calm - N/A   Clear
9:15 AM 78.6 °F - 67.6 °F 69% 30.07 in 10.0 mi Calm Calm - N/A   Clear
9:35 AM 81.0 °F 83.4 °F 67.3 °F 63% 30.07 in 10.0 mi Calm Calm - N/A   Clear
9:55 AM 82.8 °F 84.7 °F 65.5 °F 56% 30.07 in 10.0 mi Calm Calm - N/A   Clear
10:15 AM 85.3 °F 87.1 °F 65.1 °F 51% 30.07 in 10.0 mi SE 3.5 mph - N/A   Clear
10:35 AM 86.2 °F 87.9 °F 64.8 °F 49% 30.08 in 10.0 mi NE 3.5 mph - N/A   Clear
10:55 AM 87.3 °F 88.9 °F 64.8 °F 47% 30.08 in 10.0 mi NE 4.6 mph - N/A   Clear
11:15 AM 88.2 °F 89.6 °F 64.6 °F 45% 30.07 in 10.0 mi East 3.5 mph - N/A   Clear
11:35 AM 88.7 °F 90.4 °F 64.6 °F 45% 30.07 in 10.0 mi East 6.9 mph - N/A   Scattered Clouds
11:55 AM 86.9 °F 88.3 °F 64.6 °F 47% 30.07 in 10.0 mi SSE 5.8 mph - N/A   Scattered Clouds
12:15 PM 87.1 °F 88.9 °F 65.1 °F 48% 30.06 in 10.0 mi SE 8.1 mph - N/A   Mostly Cloudy
12:35 PM 89.2 °F 90.2 °F 63.7 °F 42% 30.05 in 10.0 mi Calm Calm - N/A   Scattered Clouds
12:55 PM 88.0 °F 88.1 °F 61.7 °F 41% 30.04 in 10.0 mi Calm Calm - N/A   Scattered Clouds
1:15 PM 91.2 °F 91.4 °F 61.9 °F 37% 30.03 in 10.0 mi South 9.2 mph - N/A   Scattered Clouds
1:35 PM 91.0 °F 90.9 °F 61.0 °F 36% 30.03 in 10.0 mi South 3.5 mph - N/A   Scattered Clouds
1:55 PM 92.1 °F 92.1 °F 60.4 °F 35% 30.02 in 10.0 mi ESE 3.5 mph - N/A   Scattered Clouds
2:15 PM 92.1 °F 91.7 °F 59.9 °F 34% 30.01 in 10.0 mi SSE 6.9 mph - N/A   Clear
2:35 PM 93.2 °F 93.3 °F 60.8 °F 34% 30.01 in 10.0 mi SE 8.1 mph 16.1 mph N/A   Mostly Cloudy
2:55 PM 92.3 °F 92.0 °F 59.9 °F 34% 29.99 in 10.0 mi Calm Calm - N/A   Scattered Clouds
3:15 PM 92.7 °F 92.1 °F 59.7 °F 33% 29.98 in 10.0 mi South 4.6 mph - N/A   Clear
3:35 PM 93.9 °F 93.2 °F 59.2 °F 31% 29.97 in 10.0 mi SSE 6.9 mph - N/A   Scattered Clouds
3:55 PM 93.7 °F 93.0 °F 58.8 °F 31% 29.97 in 10.0 mi South 4.6 mph - N/A   Clear
4:15 PM 93.0 °F 92.0 °F 58.5 °F 31% 29.96 in 10.0 mi SSE 4.6 mph - N/A   Clear
4:35 PM 94.3 °F 93.7 °F 59.0 °F 31% 29.95 in 10.0 mi South 6.9 mph - N/A   Mostly Cloudy
4:55 PM 92.8 °F 92.1 °F 59.0 °F 32% 29.95 in 10.0 mi ESE 5.8 mph - N/A   Overcast
5:15 PM 91.8 °F 90.9 °F 58.8 °F 33% 29.95 in 10.0 mi Calm Calm - N/A   Mostly Cloudy
5:35 PM 93.6 °F 92.7 °F 58.8 °F 31% 29.94 in 10.0 mi Calm Calm - N/A   Scattered Clouds
5:55 PM 94.3 °F 93.4 °F 58.6 °F 30% 29.93 in 10.0 mi East 3.5 mph - N/A   Scattered Clouds
6:15 PM 93.7 °F 93.0 °F 59.2 °F 31% 29.93 in 10.0 mi SE 6.9 mph - N/A   Mostly Cloudy
6:35 PM 93.0 °F 92.3 °F 59.2 °F 32% 29.93 in 10.0 mi SE 6.9 mph - N/A   Scattered Clouds
6:55 PM 92.3 °F 91.6 °F 59.0 °F 33% 29.93 in 10.0 mi SE 4.6 mph - N/A   Scattered Clouds
7:15 PM 91.4 °F 90.7 °F 59.7 °F 34% 29.93 in 10.0 mi SE 3.5 mph - N/A   Clear
7:35 PM 90.0 °F 89.4 °F 59.7 °F 36% 29.93 in 10.0 mi Calm Calm - N/A   Clear
7:55 PM 88.3 °F 88.1 °F 60.8 °F 39% 29.93 in 10.0 mi Calm Calm - N/A   Clear
8:15 PM 87.1 °F 87.2 °F 61.5 °F 42% 29.93 in 10.0 mi ESE 3.5 mph - N/A   Clear
8:35 PM 86.0 °F 86.1 °F 61.2 °F 43% 29.94 in 10.0 mi Calm Calm - N/A   Clear
8:55 PM 81.9 °F 83.4 °F 64.0 °F 55% 29.94 in 10.0 mi Calm Calm - N/A   Clear
9:15 PM 82.9 °F 83.7 °F 61.9 °F 49% 29.95 in 10.0 mi Calm Calm - N/A   Scattered Clouds
9:35 PM 81.3 °F 82.7 °F 63.5 °F 55% 29.95 in 10.0 mi Calm Calm - N/A   Clear
9:55 PM 79.5 °F - 64.0 °F 59% 29.96 in 10.0 mi Calm Calm - N/A   Clear
10:15 PM 80.6 °F 81.9 °F 63.0 °F 55% 29.97 in 10.0 mi Calm Calm - N/A   Clear
10:35 PM 80.2 °F 81.4 °F 62.1 °F 54% 29.97 in 10.0 mi East 4.6 mph - N/A   Clear
10:55 PM 80.8 °F 81.6 °F 61.2 °F 51% 29.97 in 10.0 mi SE 5.8 mph - N/A   Clear
11:15 PM 80.2 °F 81.3 °F 61.5 °F 53% 29.98 in 10.0 mi SE 4.6 mph - N/A   Scattered Clouds
11:35 PM 78.4 °F - 62.2 °F 57% 29.98 in 10.0 mi SSE 3.5 mph - N/A   Mostly Cloudy
11:55 PM 76.1 °F - 63.1 °F 64% 29.98 in 10.0 mi SE 4.6 mph - N/A   Mostly Cloudy